Location: Hicks
(37.9226°N, 89.9954°W)
Time: 08:35:55
(UTC+00:00)

Meteor 1-25 Rocket - Pass Details

Date: 14 December 2025
Orbit: 837 x 889 km, 81.2° (Epoch: 24 January)

Event Time Altitude Azimuth Distance (km) Brightness Sun altitude
Rises 12:15:10 0° 187° (S) 3,448 7.6 -10.3°
Reaches altitude 10° 12:17:34 10° 187° (S) 2,521 6.9 -9.8°
Maximum altitude 12:23:20 90° 280° (W) 889 4.3 -8.8°
Drops below altitude 10° 12:29:11 10° 9° (N) 2,559 6.6 -7.7°
Sets 12:31:39 0° 9° (N) 3,504 7.3 -7.3°
